Meteo Giornale » Osservazioni meteo Ungheria » Gyor Per

ore: 19:15 - Osservazioni Meteo Gyor Per
Lat. 47° 38' N Lon. 17° 48' E Alt. 129 metri s.l.m.

sereno

26 °C

Sereno

Temp. 24 Ore

15 °C

33 °C

Nord-Ovest

14.8 Km/h

Dew point 12 °C

Umidità 41 %

Visibilità  10 Km

Il sole sorge alle ore 06:06

Il sole tramonta alle ore 19:32

Data e Ora Cielo e Fenomeni T °C DP °C Um. % Pres. hPa Vis. km Vento km/h
Oggi h: 19:15 sereno Sereno 26 12 41 1014 10 NO 14.8
Oggi h: 18:45 sereno Sereno 27 12 39 1014 10 NO 24
Oggi h: 18:15 sereno Sereno 28 11 34 1014 10 NO 25.9
Oggi h: 17:45 sereno Sereno 29 11 32 1014 10 NO 29.6
Oggi h: 17:15 sereno Sereno 30 12 33 1014 10 NO 27.8
Oggi h: 16:45 sereno Sereno 30 12 33 1014 10 NO 29.6
Oggi h: 16:15 sereno Sereno 30 12 33 1014 10 NO 33.3
Oggi h: 15:45 sereno Sereno 29 11 32 1014 10 NO 31.5
Oggi h: 15:15 molto_nuvoloso Molto Nuvoloso 29 13 37 1014 10 NO 31.5
Oggi h: 14:45 nuvoloso_piovaschi Pioggia 29 15 42 1014 10 O/NO 27.8
Oggi h: 14:15 molto_nuvoloso Molto Nuvoloso 31 15 37 1014 10 NO 38.8
Oggi h: 13:45 sereno Sereno 32 14 33 1014 10 O 16.7
Oggi h: 13:15 sereno Sereno 32 14 33 1014 10 O 20.3
Oggi h: 12:45 poco_nuvoloso Poco Nuvoloso 33 14 31 1014 10 O 16.7
Oggi h: 12:15 sereno Sereno 32 13 31 1014 10 O/SO 16.7
Oggi h: 11:45 sereno Sereno 33 12 27 1014 10 SO 13
Oggi h: 11:15 sereno Sereno 32 12 29 1015 10 N 11.1
Oggi h: 10:45 sereno Sereno 32 12 29 1015 10 S 14.8
Oggi h: 10:15 sereno Sereno 31 12 31 1015 10 S/SO 13
Oggi h: 09:45 sereno Sereno 30 13 35 1015 10 SE 9.3
Oggi h: 09:15 sereno Sereno 29 14 39 1015 10 N 5.5
Oggi h: 08:45 sereno Sereno 27 14 44 1015 10 N 5.5
Oggi h: 08:15 sereno Sereno 24 13 50 1015 10 E/SE 7.4
Oggi h: 07:45 sereno Sereno 22 13 56 1015 10 N 5.5
Oggi h: 07:15 sereno Sereno 19 12 63 1015 10 E 7.4
Oggi h: 06:45 sereno Sereno 16 11 72 1015 10 N 5.5
Oggi h: 06:15 sereno Sereno 15 10 72 1015 10 E 7.4
Oggi h: 05:45 sereno Sereno 15 11 76 1015 10 E 7.4
Oggi h: 05:15 sereno Sereno 16 11 72 1015 10 SE 9.3
Oggi h: 04:45 sereno Sereno 16 11 72 1015 10 N 3.7
Oggi h: 04:15 sereno Sereno 16 11 72 1015 10 SE 9.3
Oggi h: 03:45 sereno Sereno 16 10 67 1015 10 N 5.5
Oggi h: 03:15 sereno Sereno 16 10 67 1015 10 N 3.7
Oggi h: 02:45 sereno Sereno 16 10 67 1015 10 N 5.5
Oggi h: 02:15 sereno Sereno 16 10 67 1015 10 E 7.4
Oggi h: 01:45 sereno Sereno 17 10 63 1015 10 E 7.4
Oggi h: 01:15 sereno Sereno 18 10 59 1015 10 SE 7.4
Oggi h: 00:45 sereno Sereno 18 10 59 1015 10 N 1.8
Oggi h: 00:15 sereno Sereno 19 11 59 1016 10 N 0
Ieri h: 23:45 sereno Sereno 19 11 59 1016 10 N 5.5
Ieri h: 23:15 sereno Sereno 19 10 55 1016 10 N 3.7
Ieri h: 22:45 sereno Sereno 19 10 55 1015 10 N 0
Ieri h: 22:15 sereno Sereno 21 11 52 1015 10 N 3.7
Ieri h: 21:45 sereno Sereno 22 11 49 1015 10 N 3.7
Ieri h: 21:15 sereno Sereno 23 11 46 1015 10 SE 7.4
Ieri h: 20:45 sereno Sereno 24 11 43 1015 10 N 5.5